Flag for Germany Weather past 2 weeks in Mörfelden-Walldorf, Hesse, Germany

Now
36 °F

Light rain. Fog.


Feels Like: 28 °F
Forecast: 36 / 40 °F
Wind: 10 mph from Southwest

Location: Frankfurt-M-Flughafen Airport

Current Time: Jan 26, 2015 at 12:24:58 PM

Latest Report: Jan 26, 2015 at 11:50 AM


Visibility: 3 mi

Pressure: 30.21 "Hg

Humidity: 93%

Dew point: 34 °F

Location of Mörfelden-WalldorfLocation

Historic Weather in Mörfelden-Walldorf — Graph

°F

Mörfelden-Walldorf temperature yesterday

Maximum temperature yesterday: 37 °F (at 12:20 PM)
Minimum temperature yesterday: 28 °F (at 4:20 AM)
Average temperature yesterday: 34 °F

Past Weeks' High & Low Weather Summary

 TemperatureHumidityPressure
High57 °F (Jan 13, 3:20 PM)100% (Jan 15, 1:50 AM)30.42 "Hg (Jan 15, 1:50 AM)
Low25 °F (Jan 24, 1:50 AM)39% (Jan 13, 3:20 PM)29.62 "Hg (Jan 15, 6:20 PM)
Average37 °F84%30.00 "Hg
* Reported Jan 11 11:20 AM — Jan 26 11:20 AM, Mörfelden-Walldorf, Weather by CustomWeather, © 2014

Note: Actual official high and low records may vary slightly from our data, if they occured in-between our weather recording intervals... More about our weather records

Advertising

Mörfelden-Walldorf weather history for previous 24 hours

 ConditionsComfort  
Time TempWeatherWind HumidityBarometerVisibility
11:20 AM
Jan 26
36 °FLight rain. Fog.12 mph93%30.24 "Hg3 mi
10:50 AM36 °FLight rain. Fog.12 mph93%30.24 "Hg3 mi
10:20 AM34 °FLight rain. Fog.9 mph100%30.24 "Hg3 mi
9:50 AM34 °FLight rain. Fog.No wind100%30.27 "Hg3 mi
9:20 AM34 °FLight rain. Fog.9 mph100%30.27 "Hg2 mi
8:50 AM34 °FLight rain. Fog.8 mph100%30.27 "Hg3 mi
8:20 AM34 °FLight rain. Fog.9 mph100%30.27 "Hg3 mi
7:50 AM34 °FLight rain. Fog.8 mph100%30.27 "Hg2 mi
7:20 AM34 °FLight rain. Fog.9 mph100%30.27 "Hg2 mi
6:50 AM34 °FLight rain. Fog.7 mph100%30.30 "Hg2 mi
6:20 AM34 °FLight rain. Passing clouds.7 mph100%30.30 "Hg2 mi
5:50 AM34 °FLight rain. Mostly cloudy.7 mph100%30.30 "Hg2 mi
5:20 AM34 °FLight rain. Passing clouds.7 mph100%30.30 "Hg2 mi
4:50 AM34 °FLight rain. Mostly cloudy.6 mph100%30.30 "Hg2 mi
4:20 AM34 °FLight rain. Mostly cloudy.7 mph100%30.30 "Hg2 mi
3:50 AM34 °FLight rain. Mostly cloudy.7 mph100%30.33 "Hg2 mi
3:20 AM34 °FLight rain. Passing clouds.5 mph100%30.33 "Hg2 mi
2:50 AM34 °FLight rain. Mostly cloudy.6 mph100%30.33 "Hg3 mi
2:20 AM34 °FLight rain. Mostly cloudy.6 mph100%30.33 "Hg3 mi
1:50 AM34 °FLight rain. Mostly cloudy.6 mph100%30.36 "Hg4 mi
1:20 AM34 °FLight rain. Mostly cloudy.7 mph100%30.36 "Hg4 mi
12:50 AM34 °FLight rain. Mostly cloudy.7 mph100%30.36 "Hg4 mi
12:20 AM34 °FLight rain. Low clouds.7 mph100%30.36 "Hg5 mi
11:50 PM
Jan 25
34 °FLight rain. Mostly cloudy.7 mph100%30.36 "Hg5 mi
11:20 PM34 °FLight rain. Overcast.6 mph100%30.36 "Hg6 mi
10:20 PM34 °FPartly cloudy.7 mph100%30.39 "HgN/A
9:50 PM36 °FLight rain. Mostly cloudy.7 mph93%30.39 "HgN/A
9:20 PM34 °FLight rain. Mostly cloudy.6 mph100%30.39 "HgN/A
8:50 PM36 °FLight rain. Mostly cloudy.7 mph93%30.39 "HgN/A
8:20 PM36 °FLight rain. Passing clouds.6 mph93%30.39 "HgN/A
7:50 PM36 °FLight rain. Passing clouds.5 mph93%30.39 "HgN/A
7:20 PM36 °FPassing clouds.6 mph93%30.39 "HgN/A
6:50 PM36 °FPassing clouds.5 mph93%30.39 "HgN/A
6:20 PM36 °FPartly cloudy.3 mph93%30.39 "HgN/A
5:50 PM37 °FPassing clouds.5 mph87%30.39 "HgN/A
5:20 PM37 °FPassing clouds.6 mph87%30.39 "HgN/A
4:50 PM37 °FBroken clouds.3 mph87%30.39 "HgN/A
4:20 PM37 °FBroken clouds.6 mph93%30.39 "HgN/A
3:50 PM37 °FPartly sunny.7 mph93%30.39 "HgN/A
3:20 PM37 °FBroken clouds.8 mph93%30.39 "HgN/A
2:50 PM37 °FPartly sunny.7 mph87%30.39 "HgN/A
2:20 PM37 °FBroken clouds.8 mph87%30.39 "HgN/A
1:50 PM37 °FBroken clouds.6 mph87%30.39 "HgN/A
1:20 PM37 °FPartly sunny.7 mph87%30.39 "HgN/A
12:50 PM37 °FBroken clouds.7 mph87%30.39 "HgN/A
12:20 PM37 °FPartly sunny.7 mph87%30.42 "HgN/A
Weather by CustomWeather, © 2014

See weather overviewHow to use our weather pages